Regional Weather Roundup
Issued by NWS Upton, NY

Current Version | Previous Version | Text Only | Print | Product List | Glossary Off
Versions: 1 2 3 4 5 6 7 8 9 10 11 12 13 14 15 16 17 18 19 20 21 22 23 24 25 26 27 28 29 30 31 32 33 34 35 36 37 38 39 40 41 42 43 44 45 46 47 48 49 50

000
ASUS41 KOKX 050808
RWROKX

REGIONAL WEATHER ROUNDUP
NATIONAL WEATHER SERVICE NEW YORK NY
400 AM EDT TUE MAY 05 2015

NOTE: "FAIR" INDICATES FEW OR NO CLOUDS BELOW 12,000 FEET WITH NO
SIGNIFICANT WEATHER AND/OR OBSTRUCTIONS TO VISIBILITY.

NYZ071-072-176-178-NJZ106-104-050900-
NEW YORK CITY METRO AREA


CITY           SKY/WX    TMP DP  RH WIND       PRES   REMARKS
CENTRAL PARK   CLEAR     68  46  45 W10G21    30.17S
LAGUARDIA APRT PTCLDY    68  45  43 SW12      30.14S
KENNEDY INTL   PTCLDY    56  47  71 SE5       30.16F
NEWARK/LIBERTY PTCLDY    66  47  50 SW10      30.14F
BRNX BOT. GARD   N/A     66  46  48 W7        30.17R
TETERBORO      CLEAR     64  47  53 CALM      30.15R
$$

NYZ177-179-078>081-050900-
LONG ISLAND NEW YORK

CITY           SKY/WX    TMP DP  RH WIND       PRES   REMARKS
FARMINGDALE    CLEAR     56  48  74 SW7       30.16F
ISLIP          CLEAR     58  48  69 SW10      30.14F
SHIRLEY        CLEAR     58  47  66 S9        30.17S
WESTHAMPTON    CLEAR     57  46  66 SW12G20   30.17F
MONTAUK POINT    N/A     60  45  57 SW13G23   30.17F
$$

NYZ052-065-067-050900-
HUDSON VALLEY

CITY           SKY/WX    TMP DP  RH WIND       PRES   REMARKS
WHITE PLAINS   PTCLDY    64  47  53 W3        30.15R
NEWBURGH       MOCLDY    66  50  55 SW5       30.14F
MONTGOMERY     MOCLDY    61  48  62 CALM      30.13S
POUGHKEEPSIE   MOCLDY    69  47  45 CALM      30.12S
ALBANY         CLOUDY    65  52  62 W8        30.15R
$$

NJZ001-105-106-008-010-013-015-019>022-104-050900-
NEW JERSEY

CITY           SKY/WX    TMP DP  RH WIND       PRES   REMARKS
NEWARK/LIBERTY PTCLDY    66  47  50 SW10      30.14F
TETERBORO      CLEAR     64  47  53 CALM      30.15R
CALDWELL       CLEAR     64  47  53 S3        30.16R
MORRISTOWN     PTCLDY    63  46  55 CALM      30.16R
SOMERVILLE     CLEAR     52  47  83 CALM      30.14S
SUSSEX         PTCLDY    57  47  69 CALM      30.16F
ANDOVER          N/A     61  51  70 SW3       30.16F
TRENTON        CLEAR     63  47  55 SW6       30.16S
MILLVILLE      CLEAR     63  52  67 SW5       30.19F
ATLANTIC CITY  CLEAR     65  50  58 SW10      30.19F
WRIGHTSTOWN    CLEAR     62  48  60 SW6       30.15S
TOMS RIVER     CLEAR     63  46  55 SW9       30.17F
BELMAR         CLEAR     64  45  48 SW9       30.17S
$$

PAZ047>061-062-071-050900-
EASTERN PENNSYLVANIA

CITY           SKY/WX    TMP DP  RH WIND       PRES   REMARKS
PHILADELPHIA   PTCLDY    64  50  60 SW5       30.18S
ALLENTOWN      CLEAR     55  48  77 N5        30.16S
SCRANTON       CLOUDY    70  51  51 CALM      30.17S
$$

CTZ002-004>006-009-010-012-RIZ004-006-007-MAZ004-011-015-050900-
SOUTHERN NEW ENGLAND
 IN CT

CITY           SKY/WX    TMP DP  RH WIND       PRES   REMARKS
BRADLEY INTL   MOCLDY    64  45  49 S7        30.11S
HARTFORD       MOCLDY    64  44  48 S6        30.12F
DANBURY        PTCLDY    65  44  46 SW5       30.14F
WTRBRY/OXFORD    N/A     64  45  48 SW3       30.15F
BRIDGEPORT     CLEAR     59  48  67 SW5       30.15R
MERIDEN        MOCLDY    61  45  55 S5        30.14S
NEW HAVEN      PTCLDY    53  47  79 S6        30.14F
CHESTER        FAIR      63  46  55 SW6       30.16S
GROTON         PTCLDY    56  44  64 SW6       30.15S
WILLIMANTIC    MOCLDY    67  45  45 SW9       30.13F

 IN RI

CITY           SKY/WX    TMP DP  RH WIND       PRES   REMARKS
PROVIDENCE     PTCLDY    65  44  46 SW12      30.13S
BLOCK ISLAND   CLEAR     52  43  71 SW14      30.17F
WESTERLY       CLEAR     59  45  59 SW8       30.16S

 IN MA

CITY           SKY/WX    TMP DP  RH WIND       PRES   REMARKS
BOSTON         PTCLDY    68  42  38 SW16G24   30.08S
WORCESTER      PTCLDY    64  42  44 W12       30.12R
WESTFIELD      MOCLDY    65  44  46 CALM      30.12R
PROVINCETOWN   MOCLDY    54  46  76 SW15      30.12S
NANTUCKET      CLEAR     52  47  83 SW13      30.18S
$$

ANZ330-335-338-340-345-350-353-355-050900-
COASTAL MARINE OBSERVATIONS


STATION/POSITION TIME  SKY/WX   TEMP    WIND        PRES    VSBY  WAVE
                                AIR SEA DIR/SP/G                  HT/PER
                 (UTC)          (F)     (DEG/KT/KT) (MB)    (MI)  (FT/S)
NY HARB ENTRANCE 0750            54 50  200/ 16/ 17 1020.7          4/ 5
4S FIRE IS       0703               49                N/A           5/ 5
20S FIRE ISLAND  0750            52 48  210/ 16/ 17 1021.5          4/ 5
GREAT SOUTH BAY  0700            57 59  260/ 14/ 17   N/A
23SW MTP         0750            53 46  230/ 16/ 19 1021.5          4/ 5
HUDSON CANYON    NOT AVBL
KINGS POINT      0700               48                N/A
EASTERN LI SOUND 0700            49     250/  6/  6   N/A
ROBBINS REEF     0700            67     240/ 12/ 16 1019.9
$$


>>>>>>>>>>>>>>>>>>>>>>>>>>>> KEY <<<<<<<<<<<<<<<<<<<<<<<<<<<
>                                                          <
>     SKY/WX - SKY CONDITION/PRESENT WEATHER               <
>     TMP    - TEMPERATURE IN FAHRENHEIT                   <
>     DP     - DEWPOINT IN FAHRENHEIT                      <
>     RH     - RELATIVE HUMIDITY IN PERCENT                <
>     WIND   - DIRECTION AND SPEED IN MPH                  <
>     PRES   - MEAN SEA LEVEL PRESSURE IN INCHES OF HG     <
>     WCI    - WIND CHILL INDEX                            <
>     VSB    - VISIBILITY IN MILES                         <
>     HX     - HEAT INDEX                                  <
>     TC     - TEMPERATURE IN CELSIUS                      <
>     VRB    - VARIABLE WIND DIRECTION                     <
>                                                          <
>>>>>>>>>>>>>>>>>>>>>>>>>>>> KEY <<<<<<<<<<<<<<<<<<<<<<<<<<<





USA.gov is the U.S. government's official web portal to all federal, state and local government web resources and services.